This demonstration page uses our WeatherBlox Daily Observations layout. Learn more.

Left ArrowRight Arrow

Hourly Observations for May 8, 2021

Temp ( °F °C ) Dew Point ( °F °C ) Humidity (%) Winds ( mph kmh ) Pressure ( in mb ) Visibility ( mi km ) Precip ( " mm )
12:53 am 00:53 Clear 43 6.1 38 3.3 82 82 WNW 6 9 30.02 1017 10 16 N/A
1:53 am 01:53 Clear 40 4.4 37 2.8 89 89 W 3 6 30.03 1017 10 16 N/A
2:53 am 02:53 Clear 37 2.8 35 1.7 93 93 W 3 6 30.04 1017 10 16 N/A
3:53 am 03:53 Clear 38 3.3 34 1.1 86 86 WNW 3 6 30.05 1018 10 16 N/A
4:53 am 04:53 Clear 37 2.8 34 1.1 89 89 NW 3 6 30.06 1018 10 16 N/A
5:53 am 05:53 Clear 36 2.2 34 1.1 93 93 N N/A 30.09 1019 10 16 N/A
6:53 am 06:53 Sunny 35 1.7 34 1.1 96 96 NNW 5 7 30.11 1020 10 16 N/A
7:53 am 07:53 Sunny 40 4.4 34 1.1 79 79 NW 7 11 30.13 1020 10 16 N/A
8:53 am 08:53 Sunny 44 6.7 34 1.1 68 68 NNW 5 7 30.15 1021 10 16 N/A
9:53 am 09:53 Sunny 47 8.3 35 1.7 63 63 N 6 9 30.16 1021 10 16 N/A
10:53 am 10:53 Sunny 50 10 33 0.6 52 52 VRB 6 9 30.16 1021 10 16 N/A
11:53 am 11:53 Sunny 52 11.1 32 undefined 47 47 NNE 7 11 30.16 1021 10 16 N/A
12:53 pm 12:53 Sunny 54 12.2 34 1.1 47 47 N 8 13 30.15 1021 10 16 N/A
1:53 pm 13:53 Mostly Sunny 54 12.2 33 0.6 45 45 N N/A 30.14 1021 10 16 N/A
2:53 pm 14:53 Sunny 57 13.9 32 undefined 39 39 WNW 6 9 30.13 1020 10 16 N/A
3:53 pm 15:53 Sunny 58 14.4 33 0.6 39 39 N N/A 30.11 1020 10 16 N/A
4:53 pm 16:53 Sunny 59 15 33 0.6 38 38 N N/A 30.10 1019 10 16 N/A
5:53 pm 17:53 Sunny 59 15 33 0.6 38 38 NW 10 17 30.09 1019 10 16 N/A
6:53 pm 18:53 Sunny 59 15 32 undefined 36 36 N N/A 30.09 1019 10 16 N/A
7:53 pm 19:53 Sunny 58 14.4 35 1.7 42 42 N N/A 30.07 1018 10 16 N/A
8:53 pm 20:53 Partly Cloudy 55 12.8 38 3.3 53 53 E 3 6 30.05 1018 10 16 N/A
9:53 pm 21:53 Cloudy 54 12.2 37 2.8 53 53 E 6 9 30.05 1018 10 16 N/A
10:53 pm 22:53 Cloudy 53 11.7 40 4.4 61 61 ENE 3 6 30.06 1018 10 16 N/A
11:53 pm 23:53 Cloudy 53 11.7 37 2.8 55 55 E 8 13 30.02 1017 10 16 N/A

Powered by AerisWeather